Location: Unspecified
(0.0000°N, 0.0000°E)
Time: 13:45:20
(UTC+02:00)

NOSS 3-3 (A) - Visible Passes

Search period start: 22 August 2014 00:00
Search period end: 01 September 2014 00:00
Orbit: 976 x 1237 km, 63.4° (Epoch: 15 August)

Date Brightness Start Highest point End Pass type
(mag) Time Alt. Az. Time Alt. Az. Time Alt. Az.
26 Aug 5.6 22:22:00 10° SSW 22:24:11 23° SSW 22:24:11 23° SSW visible
27 Aug 4.1 21:37:38 10° S 21:43:17 52° SE 21:43:17 52° SE visible
28 Aug 4.8 20:53:59 10° S 20:59:17 27° ESE 21:03:25 14° ENE visible
28 Aug 5.8 22:44:43 10° WSW 22:49:53 26° WNW 22:51:12 24° NW visible
29 Aug 4.7 21:59:11 10° SW 22:05:19 52° WNW 22:11:29 10° N visible
30 Aug 3.9 21:14:25 10° SSW 21:20:48 82° ESE 21:27:09 10° NNE visible
31 Aug 4.4 20:30:18 10° S 20:36:16 41° ESE 20:42:11 10° NE visible
31 Aug 6.5 22:22:57 10° WSW 22:26:53 17° WNW 22:30:51 10° NNW visible
